GFSWCAN_700_temp_057.txt.gz
Temp
2 1 2 2 2 3 3 3 3 3 3 2 2 1 1 1 1 0 0 0 -0 -1 -1 -1 -1 -1 -2 -2 -3 -3 -3 -3 -3 -3 -3 -4 -4 -4 -4 -4 -5 -5 -5 -4 -4 -3 -3 -3 -1 -2 -1 0 -1 -0
2 2 1 2 2 2 3 3 2 3 3 2 2 1 1 1 0 0 0 0 0 -0 -0 -0 -0 -1 -1 -1 -2 -3 -3 -3 -3 -3 -3 -3 -4 -4 -4 -5 -5 -5 -5 -6 -5 -4 -4 -4 -4 -3 -3 -2 -1 -1
1 1 1 2 2 2 3 2 2 3 3 2 2 2 1 1 1 1 1 1 1 1 0 -0 -1 -1 -1 -2 -3 -3 -3 -3 -3 -4 -3 -4 -4 -4 -4 -4 -4 -5 -5 -5 -6 -5 -5 -5 -4 -4 -3 -3 -2 -1
1 2 1 2 2 2 3 2 2 3 3 3 2 2 1 1 1 1 1 1 1 1 1 -0 -1 -1 -1 -2 -2 -3 -3 -3 -3 -3 -3 -3 -3 -3 -4 -4 -4 -5 -5 -6 -5 -5 -4 -4 -5 -4 -4 -4 -4 -4
1 2 1 2 2 2 3 2 3 3 3 3 2 2 2 1 1 1 1 1 1 1 1 0 -0 -0 -1 -2 -2 -3 -2 -3 -3 -3 -3 -3 -3 -3 -4 -4 -4 -5 -5 -5 -6 -6 -6 -6 -5 -4 -4 -4 -4 -4
1 1 2 2 2 2 2 2 3 3 2 2 2 2 2 1 1 1 1 1 1 0 0 0 -1 -1 -1 -1 -2 -2 -2 -3 -3 -3 -3 -3 -3 -3 -4 -4 -4 -4 -4 -5 -5 -6 -6 -6 -6 -6 -5 -5 -5 -4
1 1 2 2 2 2 2 2 2 2 2 2 2 2 2 2 1 1 1 1 1 0 0 1 -1 -0 -1 -1 -1 -1 -2 -3 -3 -3 -2 -3 -3 -3 -4 -3 -4 -4 -4 -5 -5 -5 -6 -6 -6 -6 -6 -5 -5 -5
1 1 2 2 1 2 2 2 2 2 2 2 2 2 2 1 1 1 0 1 0 0 -0 0 0 -0 -0 -0 -0 -0 -1 -2 -2 -2 -3 -3 -3 -3 -3 -3 -4 -4 -4 -5 -5 -5 -6 -6 -6 -7 -6 -6 -5 -5
1 1 2 2 2 2 2 2 2 2 2 2 2 2 2 1 1 1 1 1 1 0 0 1 1 1 0 -0 -1 -0 -1 -2 -2 -1 -2 -3 -2 -2 -2 -3 -4 -5 -5 -5 -5 -5 -6 -6 -6 -7 -6 -5 -5 -5
1 1 2 2 2 2 2 2 2 2 2 2 2 1 1 1 1 1 2 2 1 1 1 1 0 0 -1 -0 -1 -1 -2 -2 -2 -1 -2 -2 -2 -3 -2 -3 -4 -4 -5 -5 -5 -5 -6 -6 -6 -7 -6 -6 -6 -5
1 1 2 1 2 2 2 2 2 2 2 2 2 1 1 1 1 1 1 1 0 -0 -0 0 0 0 1 -1 -1 -1 -1 -2 -2 -1 -2 -2 -2 -2 -3 -4 -4 -4 -4 -5 -5 -6 -5 -5 -5 -6 -6 -7 -5 -5
1 1 1 1 2 2 2 2 2 2 2 2 1 1 1 1 1 1 1 0 1 1 1 1 0 -0 0 0 -1 -1 -2 -2 -3 -3 -2 -3 -3 -3 -3 -3 -4 -4 -5 -5 -5 -5 -6 -6 -5 -6 -6 -7 -7 -5
1 1 1 1 2 2 2 2 2 2 2 2 1 1 1 0 1 0 1 -0 1 1 -0 1 0 0 -0 -0 -1 -1 -2 -2 -3 -3 -3 -3 -3 -3 -4 -4 -4 -4 -4 -4 -5 -5 -5 -6 -6 -6 -6 -6 -7 -7
1 1 1 1 2 2 2 2 2 2 2 1 1 1 1 2 1 1 0 0 0 0 0 0 0 -1 -0 -0 -1 -1 -2 -2 -2 -2 -2 -3 -3 -3 -4 -4 -5 -5 -4 -4 -5 -5 -5 -6 -6 -6 -6 -6 -6 -7
1 1 1 1 2 2 2 2 2 2 1 1 1 1 2 2 2 2 2 1 1 1 1 1 0 -0 0 -0 -1 -2 -2 -2 -2 -2 -2 -3 -3 -3 -4 -5 -5 -4 -4 -5 -6 -5 -5 -5 -6 -6 -6 -7 -6 -7
1 1 1 1 2 2 2 2 2 2 2 1 2 2 2 2 2 1 2 2 0 2 1 -0 0 -0 -2 -1 -2 -2 -3 -2 -3 -3 -3 -3 -4 -3 -4 -4 -5 -5 -5 -5 -5 -6 -6 -6 -6 -6 -6 -6 -6 -6
1 1 1 2 2 2 2 2 2 2 2 1 2 2 2 2 3 2 2 2 1 1 1 0 -0 -0 -1 -2 -2 -3 -3 -3 -3 -3 -3 -3 -3 -3 -3 -3 -4 -5 -5 -6 -5 -6 -6 -6 -6 -7 -6 -6 -6 -6
1 1 1 1 2 2 2 2 1 2 2 3 2 2 2 1 1 2 2 1 2 1 0 -0 -1 -1 -2 -2 -2 -2 -3 -3 -3 -3 -3 -4 -3 -4 -5 -4 -4 -5 -5 -6 -6 -6 -6 -6 -7 -6 -7 -7 -6 -6
1 1 1 1 1 2 2 2 1 2 3 2 3 3 2 3 3 2 2 1 1 1 0 -1 -1 -1 -2 -2 -3 -3 -3 -3 -4 -4 -4 -4 -4 -4 -5 -4 -5 -5 -6 -5 -6 -6 -6 -6 -6 -7 -7 -7 -7 -7
1 1 1 1 1 2 1 2 1 2 3 3 3 3 3 3 3 2 2 1 0 0 -0 -1 -2 -2 -2 -2 -3 -3 -3 -3 -4 -4 -4 -4 -5 -5 -5 -6 -5 -5 -5 -6 -6 -6 -6 -7 -7 -8 -7 -7 -7 -7
1 1 1 1 1 1 1 1 1 2 2 2 3 3 2 2 2 1 1 1 0 0 0 -1 -1 -2 -2 -2 -3 -3 -3 -3 -4 -4 -4 -5 -5 -5 -5 -6 -6 -6 -6 -6 -6 -7 -7 -7 -7 -8 -8 -8 -7 -7
0 1 1 1 1 1 2 2 2 2 2 3 3 2 2 3 2 2 2 1 0 0 -0 -1 -1 -2 -2 -2 -2 -3 -3 -4 -4 -4 -5 -5 -5 -6 -6 -6 -7 -6 -7 -6 -7 -7 -6 -7 -6 -7 -8 -8 -8 -7
0 1 1 1 1 1 2 2 2 2 2 2 3 3 3 2 2 2 2 1 0 -1 -1 -2 -1 -2 -2 -2 -3 -4 -4 -4 -5 -5 -5 -5 -6 -6 -7 -7 -7 -7 -8 -7 -8 -8 -8 -8 -8 -8 -8 -8 -8 -8
0 1 0 -0 0 2 2 2 2 3 3 3 3 3 2 3 2 2 1 -0 -1 -0 -1 -2 -2 -2 -3 -4 -4 -5 -5 -5 -5 -5 -6 -6 -7 -7 -7 -8 -8 -8 -8 -8 -8 -8 -8 -8 -8 -8 -8 -8 -8 -8
0 1 1 1 2 1 2 3 3 3 2 1 2 2 1 1 1 1 1 1 1 -1 -1 -1 -2 -2 -2 -3 -3 -3 -4 -5 -5 -5 -6 -8 -8 -8 -8 -8 -8 -8 -8 -8 -8 -8 -9 -9 -9 -8 -8 -9 -8 -9
1 1 1 2 2 3 3 3 3 2 2 3 2 1 1 1 0 1 2 1 -0 -1 -1 -1 -1 -3 -3 -2 -3 -3 -4 -5 -5 -6 -7 -8 -8 -9 -9 -9 -8 -8 -9 -9 -8 -9 -9 -9 -9 -9 -9 -9 -9 -9
1 2 3 3 3 3 3 2 2 2 3 3 1 1 2 0 1 1 1 0 0 0 -1 -1 -1 -2 -2 -2 -3 -4 -5 -5 -5 -6 -6 -7 -8 -8 -8 -8 -9 -8 -9 -9 -9 -9 -9 -9 -9 -10 -10 -9 -10 -10
2 3 2 2 2 2 4 4 4 3 2 2 2 1 1 1 1 0 -0 -1 -0 -1 -1 -1 -2 -2 -3 -4 -4 -5 -6 -6 -7 -7 -7 -7 -7 -7 -8 -8 -9 -9 -9 -9 -9 -9 -9 -10 -10 -10 -10 -10 -10 -10
4 3 3 3 3 4 3 3 2 2 2 1 0 0 1 0 0 -1 -1 -1 -1 -2 -3 -3 -3 -3 -3 -3 -3 -4 -6 -6 -6 -6 -7 -8 -8 -8 -9 -9 -9 -9 -9 -9 -9 -9 -10 -10 -10 -10 -10 -10 -10 -10
4 3 3 3 3 4 3 3 3 1 2 2 1 0 0 0 -0 -1 -1 -2 -3 -3 -3 -3 -3 -4 -4 -4 -3 -4 -4 -6 -6 -7 -7 -7 -7 -8 -9 -9 -10 -10 -10 -10 -10 -10 -10 -10 -10 -10 -10 -10 -10 -11
3 3 3 4 4 4 3 3 1 1 2 1 1 0 -0 0 0 -0 -0 -2 -2 -2 -3 -3 -2 -3 -3 -4 -3 -2 -3 -4 -4 -5 -6 -6 -7 -8 -9 -9 -9 -9 -10 -10 -10 -10 -10 -10 -10 -10 -11 -10 -10 -11
4 4 4 4 4 3 4 3 2 1 1 0 1 0 0 1 1 0 -0 -1 -2 -3 -3 -3 -2 -2 -2 -2 -2 -2 -3 -3 -4 -5 -5 -5 -6 -7 -9 -9 -9 -9 -9 -10 -10 -10 -10 -10 -9 -9 -9 -10 -10 -10
4 4 4 4 3 3 3 3 2 1 1 1 1 1 1 1 1 -0 -1 -1 -2 -2 -2 -2 -2 -1 -1 -1 -2 -2 -2 -3 -3 -4 -4 -5 -5 -6 -6 -7 -8 -9 -9 -10 -10 -9 -8 -8 -8 -9 -9 -9 -9 -8

GFSWCAN_700_temp_060.txt.gz
Temp
2 2 2 3 3 3 3 3 2 2 2 3 2 2 1 1 1 0 0 0 1 1 0 0 0 -0 -0 -1 -2 -2 -2 -2 -2 -2 -2 -3 -3 -4 -3 -4 -4 -4 -4 -5 -5 -4 -3 -4 -4 -4 -3 -1 -1 0
2 1 2 2 2 3 3 3 2 3 2 3 2 2 1 1 1 1 1 1 1 1 0 0 -0 -0 -1 -1 -1 -1 -1 -1 -2 -2 -3 -3 -3 -4 -4 -4 -4 -5 -5 -5 -5 -4 -4 -4 -4 -4 -3 -2 -2 -1
2 1 2 2 2 3 3 3 3 3 3 3 3 2 2 1 1 1 1 1 1 1 1 0 -1 -0 -1 -1 -1 -1 -1 -1 -2 -2 -3 -3 -3 -3 -3 -3 -4 -4 -4 -4 -5 -5 -5 -5 -5 -5 -5 -4 -3 -3
2 1 1 2 2 3 3 3 3 3 3 3 3 2 2 1 1 1 1 1 1 1 1 1 1 -0 -1 -1 -2 -2 -1 -2 -2 -2 -2 -3 -3 -3 -3 -3 -3 -4 -4 -4 -4 -5 -5 -5 -6 -5 -5 -4 -3 -3
2 0 2 2 2 2 3 2 3 3 3 3 3 2 2 1 1 1 1 1 1 1 1 1 1 -1 -1 -1 -2 -2 -2 -2 -2 -3 -3 -3 -3 -3 -3 -3 -3 -3 -4 -4 -4 -5 -5 -6 -6 -5 -5 -5 -5 -4
1 1 2 2 2 2 2 2 3 3 3 3 2 2 2 1 1 1 1 0 -0 0 1 2 2 1 -0 -1 -2 -2 -2 -2 -3 -3 -3 -3 -3 -3 -3 -3 -2 -3 -4 -4 -4 -4 -5 -5 -6 -6 -6 -5 -5 -5
1 1 1 2 2 2 2 2 2 2 2 2 2 2 2 1 1 0 0 1 0 0 0 1 1 0 -0 0 -0 -1 -2 -2 -3 -3 -3 -3 -3 -3 -3 -2 -3 -3 -3 -4 -4 -5 -5 -5 -5 -6 -6 -5 -5 -6
1 1 1 2 2 2 2 2 2 2 2 2 2 2 2 1 1 -0 0 0 0 1 1 1 1 0 -0 -1 -2 -2 -1 -2 -2 -3 -3 -3 -3 -3 -2 -2 -2 -3 -3 -4 -5 -5 -5 -6 -5 -6 -7 -6 -5 -5
1 1 1 2 2 2 2 2 2 2 2 2 2 2 1 1 1 1 1 2 1 1 0 1 1 0 0 -1 -1 -1 -2 -2 -2 -2 -3 -3 -3 -3 -2 -2 -2 -3 -4 -4 -4 -5 -6 -6 -6 -6 -7 -7 -7 -6
1 1 1 2 2 2 2 2 2 2 2 2 2 2 1 1 1 2 2 1 1 1 1 1 0 0 0 -1 -1 -2 -2 -2 -2 -2 -3 -3 -3 -2 -2 -2 -2 -3 -4 -5 -5 -5 -5 -6 -6 -6 -7 -7 -7 -7
1 1 1 2 2 2 2 2 2 2 2 2 2 2 1 1 1 1 1 0 -0 0 0 0 0 -0 -0 -1 -1 -1 -2 -2 -2 -3 -2 -3 -3 -3 -3 -3 -2 -3 -4 -5 -5 -5 -5 -6 -6 -6 -7 -7 -7 -7
1 1 1 2 2 2 2 2 2 2 2 2 2 1 1 1 0 1 1 1 0 0 -0 -0 -0 -1 -1 -1 -1 -2 -2 -2 -2 -3 -3 -2 -3 -3 -3 -3 -3 -4 -5 -5 -5 -5 -5 -5 -6 -7 -7 -7 -7 -7
1 1 2 2 2 2 2 2 2 2 2 2 2 1 1 0 1 1 1 1 1 0 0 -0 0 -0 -0 -1 -2 -2 -2 -2 -2 -3 -2 -3 -2 -3 -3 -3 -4 -4 -5 -4 -5 -5 -5 -5 -6 -6 -6 -6 -7 -7
1 1 1 1 2 2 2 2 2 2 2 2 1 1 1 1 1 1 2 1 1 1 1 0 0 -0 0 -0 -1 -1 -2 -2 -3 -3 -3 -3 -3 -3 -4 -4 -5 -4 -4 -5 -5 -5 -6 -6 -6 -6 -7 -7 -7 -7
1 1 1 1 2 2 2 2 2 2 2 1 1 1 2 2 2 2 1 2 1 1 1 1 0 0 0 -0 -0 -1 -2 -2 -3 -3 -3 -3 -3 -4 -4 -4 -5 -4 -4 -4 -5 -5 -5 -6 -6 -6 -6 -6 -6 -7
1 1 1 1 1 2 2 2 2 2 2 2 2 3 2 1 1 2 2 2 1 1 1 0 0 -0 -1 -1 -1 -1 -2 -2 -3 -3 -3 -4 -4 -4 -4 -4 -4 -5 -5 -5 -6 -6 -6 -6 -6 -6 -6 -6 -7 -7
1 1 1 1 1 1 2 2 2 2 2 2 3 2 2 2 2 2 2 1 1 1 1 0 -0 -0 -1 -2 -2 -3 -3 -3 -3 -4 -4 -4 -4 -4 -4 -6 -5 -5 -5 -6 -6 -5 -5 -6 -6 -7 -6 -6 -7 -7
0 0 1 1 1 1 2 2 1 1 3 3 3 2 2 2 3 3 2 2 1 1 1 0 -1 -1 -1 -2 -2 -3 -3 -3 -3 -3 -4 -4 -4 -4 -4 -4 -5 -6 -5 -5 -6 -6 -6 -5 -6 -6 -7 -6 -7 -7
0 0 1 1 1 1 1 2 1 1 3 3 3 2 2 2 2 1 1 1 1 0 0 -0 -1 -1 -2 -2 -2 -3 -3 -3 -4 -4 -4 -4 -5 -5 -5 -5 -5 -5 -6 -6 -6 -6 -6 -6 -6 -7 -7 -6 -7 -7
0 0 0 1 1 1 1 1 1 1 2 2 2 2 3 3 3 2 1 1 0 0 -0 -0 -1 -2 -2 -3 -3 -3 -3 -4 -4 -4 -4 -4 -5 -5 -5 -6 -6 -6 -6 -6 -7 -6 -7 -7 -6 -6 -6 -7 -7 -7
0 0 1 1 1 1 1 1 1 1 1 2 2 2 3 3 3 2 2 1 1 -0 -0 -0 -1 -2 -2 -3 -3 -3 -3 -3 -4 -4 -5 -5 -5 -6 -6 -6 -6 -6 -7 -7 -7 -7 -7 -7 -7 -7 -8 -7 -7 -7
-0 0 1 1 1 1 2 2 2 2 1 1 2 2 2 2 2 2 2 1 0 1 -0 -0 -1 -2 -2 -3 -3 -3 -4 -4 -4 -4 -6 -6 -6 -6 -7 -7 -7 -7 -8 -8 -8 -7 -7 -7 -7 -8 -8 -8 -8 -7
-0 0 0 0 0 0 2 2 2 2 2 3 2 2 1 1 1 1 0 1 1 1 -0 -1 -1 -3 -3 -3 -3 -3 -4 -5 -5 -5 -6 -6 -6 -7 -7 -7 -8 -8 -8 -8 -8 -8 -8 -8 -8 -8 -8 -8 -7 -7
0 0 0 0 1 1 1 2 2 2 2 2 2 1 1 0 -0 0 0 1 1 -0 -1 -1 -2 -2 -3 -3 -3 -4 -4 -5 -5 -6 -6 -6 -7 -8 -8 -8 -8 -8 -8 -8 -8 -9 -8 -9 -9 -8 -8 -8 -8 -8
-0 1 1 1 1 1 2 3 3 2 2 2 1 1 1 0 -0 -0 -0 0 0 -1 -1 -1 -2 -2 -3 -3 -3 -3 -4 -4 -4 -4 -4 -5 -7 -8 -8 -9 -9 -8 -8 -9 -8 -8 -9 -9 -9 -9 -9 -9 -8 -9
0 1 1 2 2 2 2 2 2 2 2 2 2 1 0 1 1 0 1 -0 -0 -1 -1 -2 -2 -2 -2 -3 -3 -3 -4 -5 -5 -5 -5 -6 -7 -7 -8 -8 -9 -8 -8 -8 -9 -9 -9 -9 -9 -9 -9 -9 -9 -9
1 2 3 2 2 2 2 2 2 2 2 2 1 1 1 1 1 1 -0 -0 -1 -2 -2 -2 -1 -1 -2 -3 -3 -4 -4 -4 -4 -5 -6 -6 -6 -7 -7 -8 -8 -8 -8 -9 -9 -9 -9 -9 -9 -9 -9 -9 -10 -10
2 3 3 2 2 2 2 3 2 2 1 0 0 0 0 1 0 -0 -0 -1 -1 -2 -2 -2 -2 -2 -3 -3 -3 -4 -4 -5 -6 -6 -6 -7 -7 -7 -8 -8 -8 -8 -9 -9 -9 -9 -9 -9 -10 -10 -10 -10 -10 -10
3 3 3 4 3 3 2 2 1 1 1 1 1 1 0 1 0 -1 -1 -1 -1 -1 -3 -2 -2 -3 -3 -4 -4 -5 -5 -6 -6 -6 -6 -6 -7 -7 -8 -8 -8 -9 -8 -9 -9 -9 -10 -10 -10 -10 -10 -10 -11 -11
4 4 4 3 3 3 2 2 1 1 1 2 2 1 1 0 0 -0 -0 -1 -2 -3 -3 -3 -3 -3 -3 -3 -4 -4 -5 -4 -6 -6 -6 -6 -6 -7 -8 -8 -8 -8 -9 -9 -10 -10 -10 -10 -10 -10 -10 -10 -10 -10
3 3 3 3 3 3 2 2 2 2 2 2 2 1 -0 -0 0 -0 -1 -1 -2 -3 -3 -3 -3 -3 -3 -3 -3 -3 -4 -4 -5 -5 -5 -6 -6 -7 -8 -8 -9 -9 -9 -9 -9 -9 -9 -10 -9 -9 -10 -10 -10 -10
4 4 3 3 2 2 2 3 2 1 2 2 2 1 1 0 0 -0 -1 -2 -2 -2 -3 -3 -3 -3 -3 -3 -2 -3 -3 -4 -4 -4 -6 -6 -6 -6 -7 -8 -8 -8 -8 -8 -8 -8 -8 -8 -8 -8 -8 -8 -9 -9
3 3 2 3 3 2 2 2 2 1 2 2 2 1 1 1 0 0 0 -1 -1 -1 -2 -3 -3 -2 -2 -2 -2 -2 -3 -3 -4 -4 -4 -5 -5 -6 -7 -7 -8 -7 -7 -7 -7 -7 -7 -7 -7 -7 -8 -8 -8 -8

GFSWCAN_700_temp_063.txt.gz
Temp
2 2 1 1 2 2 3 3 3 3 3 3 2 2 2 1 1 0 1 1 1 0 0 0 -0 -0 -1 -2 -1 -1 -1 -1 -1 -2 -2 -3 -3 -3 -3 -3 -3 -3 -3 -3 -4 -4 -4 -4 -4 -3 -3 -3 -3 -2
2 2 1 1 2 2 3 3 3 3 3 3 3 3 2 2 1 1 1 1 1 1 1 1 0 -0 -0 -0 -1 -2 -2 -2 -2 -2 -3 -3 -3 -3 -3 -3 -3 -3 -3 -3 -3 -3 -3 -3 -3 -3 -3 -2 -2 -2
2 1 1 1 1 2 3 3 3 3 3 3 3 3 2 2 2 1 1 1 1 1 1 1 1 0 -0 -0 -1 -1 -2 -2 -2 -2 -2 -2 -3 -3 -3 -3 -3 -3 -3 -4 -4 -3 -4 -4 -4 -4 -4 -4 -4 -4
2 1 1 1 1 2 2 3 3 3 3 3 3 3 2 2 2 1 2 2 2 2 2 1 1 1 1 -0 -1 -1 -0 -1 -2 -2 -3 -3 -3 -3 -3 -4 -4 -3 -3 -3 -3 -4 -4 -5 -5 -5 -4 -4 -4 -4
2 1 1 1 1 2 2 3 3 3 3 3 3 2 2 2 2 2 2 1 1 1 2 2 2 1 0 -0 -1 -1 -2 -3 -2 -2 -2 -3 -4 -4 -3 -3 -2 -2 -3 -4 -4 -4 -5 -5 -5 -5 -6 -5 -5 -4
1 1 1 1 1 2 2 2 3 3 3 3 3 2 2 2 2 2 2 1 1 2 2 2 1 1 0 -0 -1 -1 -1 -2 -2 -2 -3 -3 -3 -3 -3 -3 -2 -3 -3 -4 -4 -4 -5 -5 -6 -6 -7 -7 -7 -6
1 1 1 1 1 1 2 2 2 2 2 3 3 2 2 2 2 2 1 1 1 1 2 2 2 1 1 -0 -0 -1 -2 -2 -2 -2 -2 -3 -3 -3 -3 -2 -2 -3 -3 -4 -4 -4 -4 -5 -5 -6 -7 -7 -7 -7
2 2 1 1 1 1 2 1 2 2 2 2 2 2 2 2 2 1 1 1 1 1 1 1 1 0 -0 -0 -1 -2 -2 -2 -2 -2 -2 -2 -3 -3 -3 -1 -2 -3 -3 -3 -4 -4 -4 -5 -6 -6 -7 -7 -7 -7
2 2 1 1 1 1 2 1 2 2 2 2 2 2 2 2 1 2 2 2 1 1 1 1 0 -0 -0 -1 -1 -1 -2 -2 -2 -2 -2 -2 -2 -3 -2 -2 -2 -2 -3 -3 -4 -5 -5 -5 -5 -6 -7 -7 -7 -7
2 1 1 1 1 1 1 1 2 2 2 2 2 2 2 2 2 2 2 2 2 1 1 1 1 -0 -1 -1 -1 -2 -2 -2 -3 -2 -2 -2 -3 -3 -3 -2 -3 -3 -3 -4 -4 -5 -5 -5 -5 -6 -7 -6 -7 -7
1 1 1 1 1 1 1 1 2 2 2 2 2 2 1 2 2 2 2 2 1 1 1 0 -0 -0 -1 -1 -2 -2 -2 -2 -2 -2 -3 -2 -2 -2 -2 -3 -3 -3 -4 -4 -5 -5 -5 -6 -5 -6 -6 -6 -7 -7
1 1 1 1 1 1 1 1 2 2 2 2 2 2 1 2 2 2 1 1 1 1 1 0 -0 -0 -0 -1 -2 -2 -3 -3 -2 -3 -2 -2 -3 -3 -3 -2 -3 -4 -4 -4 -5 -5 -5 -5 -6 -6 -6 -6 -7 -7
1 1 1 1 1 1 1 2 2 2 2 2 2 1 1 1 2 2 1 1 1 1 0 0 -0 -1 -1 -1 -2 -2 -2 -2 -3 -2 -2 -2 -2 -2 -2 -3 -3 -3 -4 -4 -5 -5 -5 -5 -6 -6 -6 -6 -7 -7
1 1 1 1 1 1 1 2 2 2 2 2 2 1 1 2 2 2 2 1 1 1 0 0 -0 -1 -1 -1 -1 -2 -2 -3 -3 -3 -3 -3 -3 -3 -3 -3 -3 -3 -4 -5 -5 -6 -6 -6 -6 -6 -6 -6 -6 -7
0 0 1 1 1 1 1 1 1 2 2 2 2 2 2 2 2 2 2 2 1 1 0 0 0 -0 -1 -1 -1 -2 -2 -3 -3 -3 -3 -3 -3 -3 -4 -4 -3 -3 -5 -5 -5 -6 -6 -6 -6 -7 -6 -6 -6 -7
0 0 0 0 1 1 1 1 1 1 2 2 2 3 2 2 2 2 1 2 2 1 1 0 -0 -1 -1 -1 -2 -2 -2 -2 -3 -3 -3 -3 -4 -4 -4 -5 -5 -5 -5 -6 -6 -6 -6 -6 -6 -6 -6 -6 -6 -7
0 0 0 0 0 1 1 1 1 1 2 3 3 2 2 2 2 2 2 1 1 1 1 0 -1 -1 -1 -2 -2 -2 -2 -3 -3 -4 -4 -4 -4 -4 -4 -5 -5 -5 -5 -6 -6 -6 -6 -6 -6 -6 -6 -6 -6 -7
-0 -0 -0 0 0 0 1 1 1 1 3 3 3 1 2 2 2 2 2 2 2 1 1 0 -0 -1 -1 -2 -2 -3 -3 -4 -4 -4 -4 -4 -4 -5 -5 -5 -5 -5 -6 -5 -6 -6 -6 -6 -6 -7 -7 -6 -6 -7
-1 -1 -0 -0 0 0 1 1 1 1 2 2 3 2 2 2 2 2 2 2 1 0 0 -1 -1 -1 -2 -2 -3 -3 -3 -4 -4 -4 -4 -5 -5 -5 -5 -5 -6 -6 -6 -6 -6 -6 -6 -6 -7 -7 -7 -7 -7 -7
-1 -1 -0 -0 0 0 0 1 1 1 2 1 1 2 2 2 2 2 2 1 1 0 -0 -1 -1 -2 -2 -2 -3 -3 -4 -3 -3 -4 -5 -5 -6 -6 -6 -7 -7 -7 -7 -7 -7 -7 -6 -7 -7 -7 -7 -7 -8 -8
-1 -0 -0 0 0 0 0 1 1 1 1 1 1 1 1 1 1 1 1 0 1 1 -0 -1 -1 -2 -3 -3 -3 -3 -3 -3 -4 -5 -5 -6 -6 -6 -6 -7 -8 -8 -7 -7 -7 -7 -7 -8 -8 -7 -8 -8 -8 -8
-1 -0 0 0 0 0 1 1 1 1 1 2 2 2 1 2 2 1 1 0 -0 -0 -0 -1 -2 -2 -2 -2 -2 -3 -4 -4 -5 -5 -6 -6 -7 -7 -7 -8 -9 -8 -8 -8 -7 -7 -7 -7 -7 -8 -8 -8 -8 -8
-1 -0 -0 0 0 1 1 1 1 1 1 2 2 1 2 2 0 -0 -0 -0 0 -0 -0 -0 -1 -2 -2 -3 -3 -4 -4 -4 -5 -5 -5 -5 -5 -7 -8 -8 -8 -8 -8 -7 -8 -8 -8 -8 -8 -8 -8 -8 -9 -9
-0 -0 -0 0 0 1 1 1 1 1 1 2 2 2 2 1 1 1 -0 -0 -0 -1 -1 -1 -1 -2 -2 -3 -4 -4 -4 -4 -5 -4 -4 -5 -6 -7 -8 -8 -8 -8 -8 -8 -8 -9 -8 -8 -8 -8 -8 -9 -9 -9
-0 0 0 1 1 1 2 2 2 2 2 2 2 2 1 0 -0 -0 -1 -0 -0 -1 -1 -1 -2 -2 -3 -3 -3 -3 -4 -4 -4 -4 -4 -5 -6 -7 -8 -8 -8 -8 -8 -8 -8 -9 -9 -9 -9 -9 -9 -9 -9 -9
0 1 1 1 1 1 2 2 1 1 2 1 1 2 1 2 1 0 -0 -0 -1 -1 -1 -1 -1 -2 -2 -2 -2 -3 -4 -4 -4 -4 -4 -5 -6 -6 -7 -8 -8 -8 -8 -8 -8 -9 -9 -9 -9 -9 -9 -9 -10 -10
1 1 2 2 1 1 2 2 2 1 1 2 2 1 0 0 0 1 -0 -1 -1 -1 -2 -1 -1 -2 -2 -2 -3 -3 -4 -4 -5 -5 -5 -6 -6 -7 -7 -8 -8 -8 -8 -9 -9 -9 -9 -9 -9 -10 -10 -10 -10 -10
2 2 2 2 2 2 2 2 2 2 2 2 1 1 -0 0 -0 -0 -1 -1 -1 -2 -2 -2 -2 -2 -2 -2 -2 -3 -3 -4 -4 -5 -6 -7 -7 -7 -7 -8 -8 -8 -9 -9 -9 -9 -10 -10 -10 -10 -10 -10 -10 -11
3 2 2 2 2 2 2 2 2 2 2 1 1 0 0 0 -0 0 -0 -1 -1 -2 -2 -2 -2 -2 -2 -2 -3 -3 -4 -4 -5 -5 -6 -7 -7 -7 -8 -8 -8 -8 -9 -9 -9 -9 -10 -10 -10 -10 -10 -10 -10 -10
3 3 3 3 2 2 3 2 2 2 1 0 0 0 0 0 0 0 -0 -1 -1 -2 -2 -2 -3 -3 -3 -3 -4 -4 -4 -4 -5 -6 -6 -7 -7 -7 -7 -8 -8 -8 -9 -9 -9 -9 -10 -10 -10 -10 -9 -10 -10 -10
2 3 3 3 3 3 2 2 2 2 1 1 0 0 0 1 0 0 -0 -1 -1 -1 -2 -3 -3 -3 -4 -4 -3 -4 -4 -4 -5 -5 -6 -6 -6 -6 -7 -7 -7 -8 -8 -8 -8 -8 -8 -8 -8 -8 -9 -9 -9 -9
3 3 3 3 3 2 2 2 2 1 1 2 2 1 1 1 1 0 -0 -0 -1 -2 -2 -3 -3 -4 -4 -3 -3 -3 -3 -4 -4 -5 -6 -6 -6 -6 -6 -6 -7 -7 -7 -8 -7 -7 -7 -7 -8 -8 -8 -8 -8 -8
3 3 3 3 3 2 2 2 2 2 1 1 1 1 1 1 1 0 0 -0 -1 -2 -3 -3 -3 -4 -3 -3 -3 -3 -3 -3 -3 -4 -5 -5 -6 -6 -6 -6 -7 -7 -7 -7 -7 -7 -7 -7 -7 -7 -7 -7 -8 -8

GFSWCAN_700_temp_069.txt.gz
Temp
2 3 2 2 2 1 1 2 3 3 2 3 3 4 3 3 2 2 2 2 2 2 2 1 1 0 0 0 0 -0 -1 -1 -1 -1 -1 -1 -1 -1 -2 -2 -2 -2 -2 -3 -3 -3 -2 -1 -2 -2 -2 -2 -2 -1
1 2 2 2 1 1 1 1 2 3 3 3 3 3 3 3 3 2 2 2 2 2 2 2 1 1 -0 -0 -0 -0 -0 -1 -1 -1 -1 -1 -1 -1 -2 -2 -2 -2 -2 -2 -1 -1 -1 -1 -2 -2 -2 -2 -2 -2
2 2 2 1 1 1 1 1 2 2 2 3 3 3 3 3 3 2 2 2 2 2 2 2 1 1 0 -1 -1 -1 -1 -1 -1 -1 -1 -1 -1 -1 -1 -1 -2 -2 -2 -2 -2 -1 -1 -1 -1 -2 -2 -2 -2 -2
2 2 1 1 1 1 1 1 2 2 2 3 3 3 3 3 3 2 2 2 2 2 2 1 1 1 0 -0 -1 -1 -2 -2 -2 -2 -2 -2 -2 -2 -2 -2 -2 -2 -2 -1 -1 -2 -2 -1 -1 -2 -2 -2 -2 -2
2 2 2 1 1 0 1 1 2 2 2 2 2 2 2 2 3 2 2 2 2 2 2 1 2 2 1 0 -1 -1 -2 -2 -2 -2 -2 -3 -2 -2 -3 -3 -1 -1 -1 -1 -1 -1 -1 -1 -2 -2 -3 -3 -3 -3
2 2 1 1 0 0 0 1 2 1 2 2 2 2 2 2 2 2 2 2 2 2 2 2 1 1 1 0 -1 -1 -2 -2 -2 -2 -2 -2 -3 -3 -3 -2 -1 -2 -2 -2 -2 -2 -2 -2 -2 -2 -3 -3 -3 -4
2 1 1 1 0 1 0 1 1 1 1 2 2 2 2 2 2 2 2 2 2 2 2 2 1 0 -0 -0 -1 -1 -2 -2 -2 -3 -3 -2 -3 -3 -3 -3 -3 -3 -3 -3 -2 -2 -2 -2 -3 -3 -3 -4 -4 -4
2 2 2 1 1 1 0 1 1 1 1 1 2 2 2 2 2 2 2 3 2 2 2 1 1 0 -0 -1 -1 -1 -2 -2 -2 -2 -2 -3 -3 -3 -3 -2 -3 -3 -2 -2 -2 -3 -3 -3 -3 -3 -4 -4 -4 -5
2 2 2 1 1 -0 0 1 1 1 1 1 1 2 2 2 2 2 2 2 2 2 2 1 1 0 0 -0 -1 -1 -2 -2 -3 -3 -3 -3 -3 -3 -3 -4 -3 -4 -3 -3 -3 -3 -3 -4 -4 -4 -4 -4 -4 -5
2 2 1 1 0 -1 -0 1 1 1 1 1 1 2 2 2 1 1 2 2 2 1 1 1 0 0 -0 -1 -1 -2 -2 -2 -3 -3 -3 -3 -3 -3 -3 -3 -3 -4 -3 -3 -4 -3 -4 -4 -4 -4 -5 -5 -5 -5
2 1 1 -0 -0 -0 0 1 1 1 1 1 2 2 2 1 1 1 2 2 2 2 1 1 0 -0 -0 -1 -1 -2 -3 -3 -3 -3 -3 -2 -3 -2 -2 -3 -3 -3 -3 -4 -4 -4 -4 -4 -4 -4 -5 -5 -5 -6
0 -0 -1 -0 -0 0 0 1 1 1 1 1 2 2 2 1 1 2 2 2 1 1 1 1 0 -0 -0 -1 -1 -2 -3 -3 -3 -3 -3 -3 -3 -3 -2 -3 -3 -3 -3 -4 -4 -4 -4 -5 -5 -5 -5 -5 -6 -6
0 1 0 -0 -0 0 0 1 1 1 1 2 2 2 1 1 1 2 2 1 1 0 0 0 -0 -0 -1 -1 -1 -2 -3 -4 -4 -3 -3 -2 -3 -3 -3 -3 -3 -4 -4 -4 -4 -4 -4 -5 -5 -5 -6 -6 -6 -6
0 0 0 -0 0 0 0 0 1 1 1 1 2 2 2 2 2 2 1 1 1 0 0 0 -0 -1 -1 -1 -1 -2 -3 -3 -4 -4 -2 -3 -3 -3 -4 -4 -4 -4 -4 -4 -4 -5 -5 -5 -5 -5 -6 -6 -6 -6
-0 0 -0 -0 -0 0 0 0 0 1 1 1 1 2 2 2 2 1 1 1 1 0 0 0 0 -0 -1 -1 -2 -2 -2 -2 -2 -2 -3 -3 -4 -4 -4 -4 -4 -4 -4 -5 -5 -5 -5 -6 -6 -5 -6 -6 -6 -6
-0 -1 -0 -0 -0 0 0 0 0 0 1 1 2 3 2 2 2 2 1 1 1 1 -0 -1 -0 -1 -1 -2 -2 -1 -2 -2 -2 -3 -3 -4 -4 -4 -4 -5 -5 -5 -5 -5 -5 -5 -5 -5 -5 -6 -7 -6 -7 -7
-1 -1 -0 -0 -0 0 -0 -0 0 0 1 2 2 2 2 2 2 1 1 1 1 1 -0 -1 -0 -1 -2 -3 -3 -2 -2 -3 -3 -3 -4 -4 -4 -5 -5 -6 -6 -6 -6 -6 -6 -6 -6 -6 -6 -6 -7 -6 -6 -7
-1 -2 -1 -0 -0 -0 -0 -0 -0 0 1 2 2 1 1 1 1 1 1 1 1 1 0 -0 -1 -2 -2 -2 -2 -3 -3 -3 -4 -4 -4 -4 -5 -5 -6 -6 -6 -7 -7 -7 -7 -7 -7 -6 -6 -5 -6 -6 -6 -7
-1 -1 -1 -1 -1 -1 -0 0 0 1 2 2 1 1 0 1 1 1 1 1 1 0 -0 -1 -1 -1 -2 -2 -3 -3 -3 -4 -4 -4 -4 -5 -5 -6 -6 -6 -6 -7 -7 -7 -7 -7 -7 -7 -7 -7 -6 -7 -7 -8
-1 -1 -1 -1 -1 -1 -1 -0 0 0 1 1 1 1 1 1 1 1 1 1 -0 -0 -0 -1 -1 -1 -2 -2 -3 -3 -4 -4 -4 -5 -5 -5 -6 -6 -6 -7 -7 -7 -7 -8 -8 -7 -7 -7 -7 -7 -7 -7 -8 -8
-2 -1 -1 -1 -1 -1 -1 -0 0 0 1 1 1 1 1 1 1 1 1 0 -0 -1 -0 -1 -1 -1 -1 -2 -3 -3 -4 -4 -4 -5 -5 -5 -5 -5 -6 -7 -7 -7 -7 -8 -8 -8 -8 -7 -7 -7 -8 -9 -8 -8
-2 -1 -1 -1 -1 -1 -0 0 0 0 1 1 1 1 1 1 1 1 0 -0 -1 -0 -1 -1 -2 -2 -2 -3 -3 -4 -4 -4 -4 -4 -4 -4 -5 -6 -6 -7 -8 -7 -7 -8 -8 -8 -8 -8 -8 -8 -9 -9 -8 -8
-2 -1 -1 -1 -1 -0 -0 0 0 0 1 1 2 2 1 1 1 1 1 -0 -1 -1 -1 -1 -1 -2 -2 -3 -3 -3 -3 -3 -3 -4 -4 -4 -5 -5 -6 -7 -7 -7 -8 -8 -8 -8 -8 -8 -9 -9 -9 -9 -9 -9
-1 -1 -1 -1 -0 -0 -0 0 1 1 1 1 1 1 1 1 1 0 -0 -1 -1 -0 -1 -1 -1 -2 -2 -3 -3 -3 -3 -3 -3 -3 -4 -5 -5 -5 -6 -7 -7 -8 -8 -8 -9 -9 -8 -8 -8 -9 -9 -9 -9 -9
-1 -1 -1 -1 -0 0 1 1 1 1 1 1 1 1 1 1 0 -0 -0 -1 -1 -1 -1 -1 -2 -2 -2 -2 -3 -3 -3 -3 -3 -4 -4 -5 -5 -6 -6 -7 -7 -8 -8 -8 -9 -9 -9 -9 -9 -9 -9 -9 -9 -10
-1 -1 -0 -0 0 0 0 1 1 1 1 1 1 1 1 0 -1 -0 -1 -1 -1 -1 -1 -1 -1 -1 -2 -2 -2 -3 -3 -3 -4 -4 -4 -5 -5 -6 -6 -7 -7 -8 -8 -8 -9 -9 -9 -10 -10 -10 -10 -10 -10 -11
-1 -0 0 0 0 0 1 1 1 2 2 1 1 1 0 -0 -0 -1 -1 -2 -2 -2 -2 -1 -1 -2 -2 -2 -3 -3 -4 -4 -4 -4 -4 -5 -5 -6 -6 -6 -7 -8 -8 -8 -9 -9 -9 -10 -10 -10 -10 -10 -11 -11
-0 0 1 1 1 1 1 1 1 2 1 0 0 0 -0 -0 -0 -0 -1 -1 -2 -2 -2 -2 -2 -2 -2 -3 -3 -4 -4 -4 -4 -4 -5 -4 -5 -5 -6 -6 -7 -7 -8 -8 -8 -8 -9 -9 -10 -10 -10 -10 -10 -10
1 0 1 1 1 1 1 2 2 1 0 1 1 0 -0 -0 -0 -0 -1 -1 -1 -2 -2 -2 -2 -3 -3 -3 -3 -4 -4 -4 -4 -5 -4 -5 -5 -5 -6 -6 -7 -7 -7 -7 -7 -8 -8 -8 -8 -9 -9 -9 -9 -9
1 1 1 1 2 2 2 2 2 1 1 1 1 1 0 0 0 -0 -1 -1 -2 -2 -3 -3 -3 -3 -4 -4 -4 -4 -4 -4 -4 -5 -5 -5 -5 -5 -6 -6 -6 -6 -6 -7 -7 -7 -7 -8 -8 -8 -8 -9 -9 -9
1 1 2 2 3 2 2 2 2 1 1 1 1 1 1 1 0 -0 -1 -1 -2 -2 -3 -3 -3 -3 -4 -4 -4 -4 -4 -4 -4 -4 -4 -5 -5 -5 -5 -6 -6 -6 -6 -6 -6 -7 -7 -7 -8 -8 -8 -8 -9 -9
2 2 2 2 2 2 2 2 2 2 1 1 1 2 1 1 0 -0 -0 -1 -1 -2 -3 -3 -3 -3 -3 -3 -4 -4 -4 -4 -4 -4 -4 -5 -5 -5 -5 -5 -6 -6 -6 -6 -6 -6 -7 -7 -7 -8 -8 -8 -9 -9
2 2 2 2 3 2 2 2 2 1 1 1 2 2 1 1 1 0 -0 -0 -1 -1 -2 -2 -3 -3 -3 -3 -3 -3 -3 -3 -3 -4 -4 -4 -5 -5 -5 -5 -5 -6 -6 -6 -6 -6 -6 -7 -7 -7 -8 -8 -8 -9

GFSWCAN_700_temp_072.txt.gz
Temp
2 2 1 2 2 2 1 1 1 2 3 3 3 3 3 3 3 3 3 2 2 2 2 2 1 1 0 0 -1 0 -0 -1 -1 -2 -2 -1 -2 -1 -1 -1 -2 -1 -1 -1 -0 1 -0 -1 -0 -0 0 -0 0 0
2 1 1 2 2 1 1 1 1 2 2 3 3 3 3 3 3 3 3 2 2 2 2 2 2 2 1 1 0 0 -0 -0 -1 -1 -1 -1 -1 -2 -2 -1 -1 -2 -2 -2 -2 -1 -0 -0 -1 -0 -0 -0 -0 -0
1 2 2 2 2 1 1 0 1 2 2 3 3 3 3 3 3 3 3 2 2 2 2 2 2 2 1 1 0 -1 -1 -0 -0 -0 -2 -2 -1 -1 -2 -2 -1 -1 -1 -1 -1 -1 -1 -1 -1 -0 -0 -1 -1 -1
2 2 2 2 2 1 1 0 1 2 2 2 3 3 3 3 2 3 3 2 2 2 1 1 2 1 1 1 0 -1 -1 -1 -2 -2 -2 -2 -2 -2 -2 -2 -1 -2 -1 -1 -0 -0 -1 -1 -1 -1 -1 -1 -1 -1
3 2 2 2 1 1 0 1 1 2 2 2 2 3 3 3 2 3 3 2 2 2 1 0 2 2 2 1 0 -1 -1 -2 -2 -2 -2 -2 -2 -2 -2 -3 -2 -1 -1 -1 -1 -1 -1 -1 -1 -1 -1 -1 -2 -2
3 2 2 2 1 1 1 0 1 1 1 2 2 2 2 3 2 3 3 2 2 2 2 -0 1 1 1 1 -0 -1 -1 -2 -2 -2 -2 -2 -2 -3 -3 -3 -1 -2 -2 -2 -2 -1 -1 -1 -1 -1 -2 -2 -2 -2
3 2 2 2 1 1 1 0 1 1 1 1 2 2 2 2 2 2 2 2 2 3 2 1 0 1 1 0 -0 -1 -1 -2 -2 -2 -2 -2 -2 -3 -3 -3 -3 -3 -3 -2 -2 -2 -2 -1 -1 -1 -2 -3 -3 -3
2 2 1 1 1 0 1 0 1 1 1 1 2 2 2 2 2 2 2 2 2 2 2 1 0 1 0 -0 -1 -1 -1 -2 -2 -2 -2 -2 -3 -3 -3 -2 -3 -3 -3 -3 -2 -3 -3 -2 -2 -2 -2 -3 -3 -3
2 2 1 1 1 1 0 -0 1 1 1 1 1 2 2 2 2 2 2 2 2 2 2 1 1 1 0 -0 -0 -0 -1 -1 -2 -2 -2 -3 -3 -2 -2 -2 -3 -3 -3 -3 -3 -3 -3 -3 -3 -3 -3 -3 -4 -4
2 2 1 1 1 1 -0 -1 1 1 1 1 1 2 2 1 1 1 2 2 2 2 2 1 1 0 -0 -0 -0 -0 -1 -1 -2 -2 -3 -3 -2 -2 -2 -2 -2 -3 -3 -4 -3 -3 -3 -3 -4 -4 -4 -4 -4 -4
1 1 1 1 0 -0 -1 0 1 1 1 1 1 1 1 1 1 1 2 2 2 2 2 1 1 0 0 -0 -1 -1 -1 -1 -2 -3 -3 -3 -2 -3 -2 -2 -2 -2 -3 -3 -3 -3 -4 -4 -5 -5 -5 -6 -6 -4
1 1 -0 -1 -1 -1 -1 0 0 1 1 1 1 1 1 1 1 1 2 2 2 1 1 1 0 0 -0 -1 -1 -1 -2 -2 -3 -3 -3 -3 -2 -2 -2 -2 -3 -3 -3 -3 -3 -4 -4 -5 -5 -5 -5 -5 -6 -5
-0 -1 -1 -0 -0 -0 -0 0 0 1 1 1 1 1 1 1 1 1 2 2 2 1 1 1 0 -0 -0 -1 -1 -1 -2 -3 -3 -3 -3 -2 -3 -3 -3 -3 -3 -3 -3 -3 -3 -4 -4 -4 -5 -5 -5 -5 -5 -6
0 -0 -0 -0 -0 -0 -0 0 0 0 1 1 1 1 1 2 2 2 2 1 1 1 1 0 0 -0 -0 -1 -1 -1 -2 -2 -3 -4 -2 -2 -3 -3 -3 -3 -3 -3 -4 -4 -4 -4 -4 -4 -4 -5 -5 -5 -5 -5
-1 -0 -1 -1 -1 -0 -0 -0 0 0 0 1 1 1 2 2 2 2 2 1 1 1 1 0 -1 -0 -1 -1 -1 -2 -2 -3 -3 -2 -1 -2 -3 -3 -3 -4 -4 -4 -4 -4 -4 -5 -4 -5 -5 -5 -5 -5 -6 -6
-0 -1 -1 -1 -1 -0 -0 -0 0 0 0 0 2 2 2 2 1 1 1 1 1 1 0 -0 -0 -1 -1 -2 -3 -3 -2 -2 -1 -2 -3 -3 -3 -3 -4 -4 -4 -4 -5 -5 -5 -5 -5 -5 -5 -5 -5 -5 -5 -6
-1 -1 -1 -1 -1 -1 -1 -0 -0 -0 0 1 2 2 2 2 2 1 1 1 1 0 0 -0 -1 -1 -2 -2 -3 -3 -2 -2 -2 -3 -3 -3 -4 -4 -4 -4 -5 -5 -6 -6 -6 -6 -6 -6 -6 -6 -6 -6 -5 -6
-1 -1 -2 -1 -1 -1 -1 -0 -1 -0 1 1 1 1 1 1 1 1 1 1 1 1 1 0 -1 -2 -2 -2 -2 -3 -2 -2 -3 -3 -3 -4 -4 -4 -4 -4 -5 -5 -6 -6 -6 -7 -7 -7 -7 -6 -6 -6 -6 -6
-1 -1 -2 -1 -1 -1 -1 -0 -0 -0 1 1 1 1 1 1 1 1 1 1 1 0 0 -1 -1 -1 -2 -2 -3 -3 -3 -3 -3 -3 -4 -4 -4 -4 -5 -5 -6 -6 -6 -7 -7 -7 -7 -7 -7 -7 -7 -7 -7 -7
-2 -2 -2 -1 -1 -1 -1 -0 -0 -0 1 0 1 1 1 1 1 1 1 1 1 -0 -0 -0 -1 -1 -1 -3 -3 -3 -4 -4 -4 -4 -5 -5 -5 -4 -5 -6 -7 -7 -8 -7 -8 -7 -7 -7 -7 -6 -7 -7 -7 -7
-2 -2 -2 -1 -1 -1 -1 -1 -0 0 1 1 1 1 1 1 1 1 1 1 0 -0 -1 -1 -2 -1 -1 -2 -3 -3 -4 -4 -4 -5 -5 -6 -4 -5 -6 -7 -8 -9 -9 -8 -7 -7 -7 -7 -7 -7 -7 -7 -8 -8
-2 -2 -2 -1 -1 -1 -0 -0 -0 0 1 1 1 1 1 1 1 1 1 0 -0 -0 -1 -1 -1 -2 -2 -3 -3 -3 -4 -4 -3 -3 -3 -4 -5 -6 -7 -8 -8 -8 -7 -7 -6 -7 -7 -7 -8 -7 -8 -8 -8 -9
-2 -2 -2 -1 -1 -0 -0 0 0 0 1 1 2 2 2 2 1 1 0 -0 -0 -0 -1 -1 -1 -2 -2 -3 -3 -3 -3 -3 -3 -3 -4 -4 -5 -5 -7 -7 -7 -9 -8 -7 -7 -7 -8 -8 -8 -8 -9 -9 -9 -9
-2 -2 -1 -1 -1 -0 -0 0 1 1 1 2 2 1 2 1 1 1 -0 -1 -1 -1 -1 -1 -2 -2 -2 -2 -2 -2 -3 -3 -3 -3 -4 -4 -5 -5 -6 -8 -9 -7 -8 -8 -8 -8 -8 -8 -8 -9 -9 -9 -9 -9
-2 -1 -1 -1 -0 0 0 0 1 1 1 1 1 1 1 1 0 0 -1 -0 -1 -1 -1 -1 -2 -3 -3 -2 -2 -2 -2 -3 -3 -3 -4 -5 -5 -6 -7 -8 -8 -8 -9 -9 -9 -9 -8 -9 -9 -10 -10 -9 -10 -10
-1 -1 -1 -0 -1 -0 -1 -0 1 1 1 1 1 1 0 0 -0 -0 -1 -1 -1 -2 -1 -1 -1 -2 -2 -2 -2 -2 -3 -3 -3 -4 -4 -5 -6 -8 -8 -8 -9 -9 -9 -9 -9 -9 -9 -9 -9 -10 -10 -10 -10 -10
-1 -1 -0 -0 -0 0 0 0 1 1 1 1 1 1 -0 -0 -0 -0 -0 -1 -2 -2 -2 -1 -1 -1 -1 -2 -2 -3 -3 -4 -4 -4 -4 -5 -5 -6 -8 -8 -8 -7 -8 -9 -9 -10 -10 -9 -10 -10 -10 -10 -10 -11
-1 -0 0 0 0 1 1 1 1 1 1 1 1 1 1 0 -0 0 -0 -1 -1 -1 -1 -1 -2 -2 -2 -2 -2 -3 -3 -4 -4 -4 -4 -5 -5 -5 -5 -5 -6 -6 -6 -7 -9 -10 -10 -10 -10 -10 -10 -10 -10 -10
-0 -0 0 1 1 1 1 1 1 2 1 0 0 1 1 1 0 0 -0 -1 -1 -2 -2 -2 -2 -2 -2 -2 -3 -3 -3 -4 -4 -4 -5 -5 -5 -5 -5 -5 -5 -6 -6 -6 -7 -7 -7 -8 -8 -8 -9 -10 -10 -10
0 0 1 1 1 1 1 2 2 2 1 1 1 1 1 1 0 0 -0 -0 -1 -2 -2 -3 -2 -2 -3 -3 -3 -3 -3 -4 -5 -6 -7 -6 -5 -5 -5 -5 -5 -5 -6 -6 -6 -6 -6 -7 -7 -7 -8 -9 -10 -10
1 1 2 2 2 2 2 2 2 2 1 1 1 1 0 1 0 0 -0 -1 -1 -1 -2 -3 -3 -3 -3 -4 -4 -4 -3 -3 -4 -4 -4 -5 -5 -5 -5 -5 -5 -5 -6 -6 -6 -6 -7 -7 -7 -7 -7 -8 -8 -9
2 2 2 2 2 2 2 2 1 2 1 1 1 1 1 1 1 0 -0 -0 -1 -2 -2 -3 -3 -4 -4 -4 -4 -4 -4 -4 -3 -4 -4 -4 -4 -4 -5 -5 -5 -5 -5 -6 -6 -6 -6 -7 -7 -7 -7 -8 -8 -8
2 2 2 2 2 2 2 2 2 1 1 1 2 2 1 1 0 0 -0 -0 -1 -1 -2 -2 -2 -3 -3 -4 -4 -4 -3 -3 -3 -3 -4 -4 -4 -4 -4 -5 -5 -5 -5 -6 -6 -6 -6 -6 -7 -7 -7 -7 -8 -8

GFSWCAN_700_temp_075.txt.gz
Temp
2 2 1 -0 1 2 2 1 1 1 2 3 3 3 4 4 4 3 3 3 3 2 2 3 2 1 1 1 2 2 1 1 1 1 1 -0 -1 -1 -0 -0 1 3 2 2 3 5 4 1 2 2 2 0 1 0
3 2 2 2 2 2 2 1 1 1 2 3 3 3 3 4 3 3 3 3 3 3 1 2 1 2 1 0 1 1 1 1 1 1 0 -0 -1 0 -0 1 -0 0 1 0 2 2 1 -0 -0 -0 -0 -0 1 0
2 2 2 2 2 2 2 1 1 1 2 2 3 3 3 4 3 3 3 3 3 2 1 1 1 2 2 1 -0 1 0 0 -0 0 1 1 -0 0 0 0 0 -0 -1 -1 -1 0 -1 -1 -1 0 0 -1 0 0
2 2 2 2 2 2 2 1 0 1 1 2 2 3 3 3 3 3 3 3 3 2 2 2 2 2 2 0 0 -1 -1 0 -1 -1 1 0 -0 -0 0 0 -0 -0 -1 -1 -1 -1 -1 -1 -1 0 0 0 0 -0
3 3 2 3 2 2 1 1 0 1 1 2 2 2 3 3 3 3 3 3 3 2 2 2 1 1 2 2 1 0 -1 -1 -1 -1 -1 -1 -1 -1 -1 -1 -0 0 -0 -1 -1 -1 -1 -1 -2 -1 -0 0 -0 -1
3 3 2 2 2 1 1 1 0 1 2 2 2 2 2 3 3 3 3 3 2 2 2 2 2 2 2 2 1 -1 -1 -1 -1 -2 -1 -1 -1 -2 -2 -2 -1 -1 -1 -1 -1 -1 -1 -1 -2 -0 -0 -1 -1 -1
3 3 2 2 2 1 1 0 1 1 1 1 2 2 2 2 2 2 1 2 2 3 2 2 2 2 2 1 -1 -1 -1 -1 -1 -1 -2 -2 -2 -2 -2 -1 -1 -2 -2 -2 -1 -2 -2 -3 -2 -1 -1 -1 -1 -2
3 3 2 2 1 1 1 0 -0 -0 1 1 1 1 2 2 2 2 2 2 3 3 2 1 2 1 1 0 -0 -1 -1 -1 -1 -2 -2 -2 -2 -2 -1 -1 -2 -2 -2 -2 -2 -3 -3 -3 -3 -2 -1 -1 -2 -2
3 3 2 2 2 2 1 0 -1 -0 0 1 1 1 2 2 2 2 2 3 3 2 0 1 2 1 1 1 0 -1 -1 -1 -1 -1 -1 -2 -2 -1 -1 -2 -3 -3 -2 -2 -3 -3 -3 -3 -3 -4 -4 -4 -4 -4
3 2 2 1 1 1 0 -0 -1 1 1 1 1 1 1 2 2 2 2 2 2 2 2 1 1 1 1 1 0 0 0 -1 -1 -1 -1 -1 -1 -1 -1 -2 -2 -1 -1 -2 -2 -3 -4 -4 -4 -4 -4 -4 -4 -4
2 2 1 1 1 1 -0 -1 -1 0 1 1 1 1 1 1 2 2 2 2 2 2 1 1 1 1 1 0 1 0 -0 -1 -1 -1 -2 -2 -0 -2 -2 -3 -2 -1 -2 -3 -4 -3 -3 -3 -4 -4 -4 -4 -4 -4
2 1 1 0 -0 -1 -2 -1 0 0 1 1 1 1 1 1 1 1 1 2 2 1 1 1 1 1 1 1 1 0 -1 -1 -1 -2 -2 -3 -0 -2 -3 -3 -3 -3 -3 -3 -3 -3 -3 -4 -3 -4 -4 -4 -4 -4
-0 -1 -1 -1 -0 -0 -0 0 0 0 1 1 1 1 1 0 0 1 1 1 2 1 1 1 1 1 1 1 0 -0 -1 -1 -1 -1 -2 -1 -1 -2 -2 -3 -3 -3 -4 -4 -4 -3 -3 -3 -4 -4 -4 -4 -4 -4
-0 0 -0 -0 0 -0 -0 -0 0 0 0 0 0 1 1 1 0 2 2 2 2 2 1 2 1 1 1 0 0 -1 -2 -1 -2 -2 -1 -0 -1 -2 -3 -2 -3 -4 -3 -3 -4 -4 -5 -4 -4 -4 -4 -4 -4 -4
-0 -0 -0 -0 -0 -0 -0 -0 -0 0 0 0 0 1 1 1 2 2 2 2 2 2 1 1 1 0 -0 -1 -1 -1 -2 -2 -1 -0 -1 -2 -2 -2 -2 -3 -4 -4 -4 -3 -4 -4 -4 -4 -5 -5 -5 -5 -4 -5
-0 -0 -1 -1 -0 -0 -0 -0 -0 -0 0 0 1 2 1 2 3 3 3 3 2 1 1 1 1 0 -0 -1 -2 -2 -2 -2 -0 -2 -1 -2 -2 -2 -3 -3 -5 -5 -5 -5 -5 -6 -6 -7 -7 -7 -6 -5 -5 -5
-1 -1 -1 -1 -1 -0 -0 -0 -0 -0 -0 1 1 1 1 1 2 2 2 2 1 1 1 1 1 0 -0 -2 -2 -2 -2 -2 -1 -1 -2 -2 -3 -3 -3 -5 -6 -5 -5 -6 -7 -6 -6 -7 -6 -6 -6 -5 -5 -5
-1 -1 -1 -1 -1 -1 -1 -1 -1 -1 0 1 0 1 1 1 1 1 2 1 1 1 1 1 1 -0 -1 -2 -2 -2 -2 -2 -2 -2 -3 -3 -3 -3 -4 -5 -4 -4 -5 -7 -7 -6 -6 -6 -6 -6 -6 -6 -5 -5
-2 -1 -1 -2 -1 -2 -1 -1 -1 -0 -0 0 0 1 1 1 1 1 1 1 1 1 1 0 -0 -0 -1 -0 -2 -2 -2 -1 -2 -3 -3 -3 -3 -3 -4 -6 -7 -7 -6 -6 -8 -8 -8 -7 -6 -6 -6 -7 -7 -6
-2 -2 -2 -2 -1 -1 -1 -1 -0 0 1 1 0 1 1 1 1 1 1 1 1 1 0 0 -0 -0 -0 -1 -2 -2 -2 -2 -2 -3 -3 -4 -5 -5 -5 -5 -7 -7 -6 -7 -7 -7 -7 -7 -7 -7 -7 -7 -7 -7
-2 -2 -2 -2 -1 -1 -1 -1 -1 0 0 -0 1 2 1 1 1 1 1 1 1 0 0 1 0 -2 -1 -2 -2 -3 -3 -3 -3 -4 -4 -4 -5 -6 -6 -6 -6 -6 -6 -7 -7 -7 -6 -7 -7 -7 -7 -7 -7 -7
-2 -2 -2 -1 -1 -1 -0 0 -0 -0 0 0 1 1 1 2 2 1 1 1 0 -0 -0 0 -0 -1 -1 -2 -2 -3 -3 -3 -3 -3 -3 -4 -5 -6 -6 -6 -6 -7 -7 -7 -6 -6 -7 -7 -7 -7 -8 -8 -7 -8
-2 -2 -2 -1 -1 -1 0 0 0 -1 0 1 1 2 2 1 2 2 1 1 0 0 -0 -0 -0 -1 -1 -2 -2 -2 -2 -3 -4 -3 -4 -6 -5 -6 -7 -7 -7 -7 -7 -8 -8 -7 -7 -7 -8 -7 -8 -8 -8 -8
-2 -2 -1 -1 -1 -0 -1 -0 1 -0 1 1 2 2 2 2 2 1 1 0 -0 0 -0 -1 -1 -2 -1 -2 -4 -2 -2 -3 -3 -3 -4 -6 -6 -7 -7 -7 -7 -7 -8 -8 -8 -8 -8 -8 -8 -8 -8 -8 -8 -8
-2 -1 -1 -1 -1 -0 -0 0 0 1 1 2 2 2 1 1 1 1 0 0 -0 -0 -1 -1 -2 -3 -3 -3 -3 -2 -2 -5 -5 -4 -4 -5 -6 -7 -7 -7 -7 -7 -7 -7 -8 -8 -8 -8 -8 -9 -9 -9 -9 -8
-2 -1 -1 -2 -1 -0 1 1 1 1 2 2 2 2 1 -0 0 0 -0 0 0 -1 -1 -1 -2 -2 -3 -3 -3 -2 -2 -2 -3 -4 -3 -5 -6 -6 -6 -7 -7 -7 -8 -8 -8 -8 -8 -8 -9 -9 -9 -9 -9 -9
-1 -2 -1 -0 -0 -0 1 1 1 2 2 2 1 1 1 1 0 0 -0 -1 -1 -1 -2 -2 -3 -3 -3 -3 -2 -2 -2 -3 -3 -3 -3 -4 -5 -7 -6 -6 -7 -8 -8 -8 -8 -8 -8 -8 -9 -9 -9 -9 -9 -9
-1 -1 -1 -0 -0 -0 0 1 1 2 2 2 1 1 1 0 1 -0 -1 0 -0 -0 -2 -2 -3 -3 -3 -1 -1 -1 -2 -2 -3 -3 -3 -4 -4 -5 -5 -5 -5 -6 -6 -7 -7 -8 -8 -8 -9 -9 -9 -9 -9 -9
-1 -1 -1 -1 -0 0 1 1 1 2 2 2 1 1 0 1 0 0 1 0 -0 -1 -1 -2 -2 -2 -1 -1 -2 -2 -2 -3 -3 -3 -5 -6 -5 -5 -4 -5 -5 -6 -7 -6 -6 -6 -7 -7 -8 -9 -9 -9 -9 -9
-1 -1 -0 -0 0 1 1 2 2 1 2 1 1 1 1 -0 0 1 1 0 -0 -1 -2 -3 -3 -3 -3 -3 -3 -3 -3 -5 -5 -5 -6 -6 -6 -5 -4 -5 -6 -7 -7 -8 -7 -6 -7 -6 -8 -8 -9 -9 -9 -9
-0 -0 0 0 1 1 2 1 2 2 2 1 1 1 1 0 1 1 1 0 -1 -2 -2 -3 -3 -3 -3 -4 -4 -4 -5 -4 -4 -4 -4 -6 -5 -4 -4 -4 -5 -5 -6 -6 -7 -8 -8 -8 -8 -8 -8 -9 -9 -9
-0 0 0 1 1 2 2 2 1 2 2 2 1 1 1 0 0 1 0 -0 -1 -2 -2 -2 -2 -3 -3 -3 -3 -4 -3 -4 -3 -3 -3 -4 -4 -4 -4 -4 -5 -6 -5 -5 -6 -8 -7 -7 -8 -8 -8 -8 -9 -9
1 1 1 1 1 1 2 2 2 2 2 2 1 1 1 1 1 -0 0 -0 -1 -1 -2 -2 -2 -3 -3 -3 -3 -4 -3 -4 -4 -4 -3 -4 -4 -4 -4 -5 -5 -5 -5 -6 -7 -7 -7 -6 -7 -7 -7 -8 -8 -8